Location: Red Bud (historical)
(37.7759°N, 88.4053°W)
Time: 18:07:29
(UTC+00:00)

Tiangong - Pass Details

Date: 26 June 2021
Orbit: 373 x 386 km, 41.5° (Epoch: 04 August)

Event Time Altitude Azimuth Distance (km) Brightness Sun altitude
Exits shadow 09:15:07 - 290° (WNW) 1,652 4.0 -13.1°
Reaches altitude 10° 09:15:47 10° 293° (WNW) 1,387 3.6 -13.0°
Maximum altitude 09:18:47 42° 6° (N) 553 2.2 -12.6°
Drops below altitude 10° 09:21:48 10° 80° (E) 1,395 4.8 -12.2°
Sets 09:23:57 0° 87° (E) 2,250 5.8 -11.9°
